RESURS-DK 1

Last updated on Mon Sep 21 2026 00:02:09 GMT+0000 (Coordinated Universal Time)

1 29228U 06021A 26263.61040376 .00001422 00000+0 85245-4 0 9994 2 29228 69.9300 92.4759 0005101 210.6243 149.4626 15.13528463117013
UTC large
Height (km)
Speed (km/s)
/
Latitude / Longitude
Inclination (degrees)
Orbital Period (minutes)
Azimuth
Elevation
Range (km)
Doppler Factor

Next 0 passes for location: London (51.5072 / 0.1276)

No passes found over London.
RESURS-DK 1